Météo par heure à Jumabozor

Ce jour, 16 Juin, Mercredi

Heure Température Précipitation Vent Pression Humidité
00:00 +21°C° 0 mm 2 m/s 688 mmHg 19%
01:00 +20°C° 0 mm 2 m/s 688 mmHg 20%
02:00 +20°C° 0 mm 2 m/s 688 mmHg 21%
03:00 +20°C° 0 mm 2 m/s 688 mmHg 22%
04:00 +19°C° 0 mm 2 m/s 688 mmHg 22%
05:00 +21°C° 0 mm 2 m/s 689 mmHg 20%
06:00 +24°C° 0 mm 2 m/s 690 mmHg 19%
07:00 +26°C° 0 mm 1 m/s 690 mmHg 17%
08:00 +28°C° 0 mm 2 m/s 690 mmHg 15%
09:00 +30°C° 0 mm 2 m/s 690 mmHg 13%
10:00 +31°C° 0 mm 3 m/s 690 mmHg 11%
11:00 +33°C° 0 mm 3 m/s 690 mmHg 10%
12:00 +34°C° 0 mm 3 m/s 690 mmHg 9%
13:00 +34°C° 0 mm 4 m/s 690 mmHg 8%
14:00 +34°C° 0 mm 4 m/s 690 mmHg 8%
15:00 +34°C° 0 mm 4 m/s 690 mmHg 9%
16:00 +34°C° 0 mm 4 m/s 690 mmHg 9%
17:00 +32°C° 0 mm 4 m/s 690 mmHg 11%
18:00 +29°C° 0 mm 3 m/s 690 mmHg 14%
19:00 +27°C° 0 mm 3 m/s 689 mmHg 16%
20:00 +26°C° 0 mm 3 m/s 689 mmHg 17%
21:00 +25°C° 0 mm 2 m/s 689 mmHg 18%
22:00 +24°C° 0 mm 2 m/s 689 mmHg 19%
23:00 +23°C° 0 mm 2 m/s 689 mmHg 20%

Demain, 17 Juin, Jeudi

Heure Température Précipitation Vent Pression Humidité
00:00 +23°C° 0 mm 2 m/s 689 mmHg 20%
01:00 +23°C° 0 mm 1 m/s 689 mmHg 21%
02:00 +21°C° 0 mm 2 m/s 689 mmHg 21%
03:00 +21°C° 0 mm 2 m/s 689 mmHg 21%
04:00 +21°C° 0 mm 2 m/s 689 mmHg 22%
05:00 +24°C° 0 mm 2 m/s 689 mmHg 20%
06:00 +26°C° 0 mm 2 m/s 690 mmHg 19%
07:00 +28°C° 0 mm 2 m/s 690 mmHg 17%
08:00 +29°C° 0 mm 2 m/s 690 mmHg 15%
09:00 +31°C° 0 mm 3 m/s 690 mmHg 14%
10:00 +33°C° 0 mm 3 m/s 690 mmHg 12%
11:00 +34°C° 0 mm 4 m/s 690 mmHg 11%
12:00 +35°C° 0 mm 4 m/s 690 mmHg 10%
13:00 +36°C° 0 mm 5 m/s 690 mmHg 9%
14:00 +36°C° 0 mm 5 m/s 690 mmHg 9%
15:00 +35°C° 0 mm 5 m/s 690 mmHg 9%
16:00 +35°C° 0 mm 6 m/s 690 mmHg 9%
17:00 +33°C° 0 mm 5 m/s 690 mmHg 11%
18:00 +30°C° 0 mm 4 m/s 689 mmHg 13%
19:00 +28°C° 0 mm 3 m/s 689 mmHg 15%
20:00 +27°C° 0 mm 3 m/s 689 mmHg 17%
21:00 +26°C° 0 mm 2 m/s 690 mmHg 18%
22:00 +25°C° 0 mm 2 m/s 690 mmHg 19%
23:00 +25°C° 0 mm 2 m/s 689 mmHg 19%

Après-demain, 18 Juin, Vendredi

Heure Température Précipitation Vent Pression Humidité
00:00 +24°C° 0 mm 2 m/s 689 mmHg 20%
01:00 +24°C° 0 mm 2 m/s 689 mmHg 20%
02:00 +24°C° 0 mm 2 m/s 689 mmHg 20%
03:00 +23°C° 0 mm 2 m/s 689 mmHg 21%
04:00 +23°C° 0 mm 2 m/s 689 mmHg 21%
05:00 +25°C° 0 mm 2 m/s 690 mmHg 20%
06:00 +27°C° 0 mm 2 m/s 690 mmHg 18%
07:00 +29°C° 0 mm 2 m/s 691 mmHg 16%
08:00 +31°C° 0 mm 2 m/s 691 mmHg 15%
09:00 +33°C° 0 mm 3 m/s 691 mmHg 13%
10:00 +35°C° 0 mm 3 m/s 691 mmHg 11%
11:00 +36°C° 0 mm 3 m/s 691 mmHg 10%
12:00 +37°C° 0 mm 4 m/s 691 mmHg 9%
13:00 +37°C° 0 mm 4 m/s 691 mmHg 8%
14:00 +37°C° 0 mm 5 m/s 691 mmHg 9%
15:00 +37°C° 0 mm 5 m/s 690 mmHg 9%
16:00 +38°C° 0 mm 6 m/s 690 mmHg 9%
17:00 +35°C° 0 mm 5 m/s 690 mmHg 11%
18:00 +33°C° 0 mm 5 m/s 690 mmHg 13%
19:00 +30°C° 0 mm 4 m/s 690 mmHg 15%
20:00 +29°C° 0 mm 4 m/s 690 mmHg 16%
21:00 +28°C° 0 mm 3 m/s 691 mmHg 17%
22:00 +26°C° 0 mm 2 m/s 691 mmHg 19%
23:00 +26°C° 0 mm 2 m/s 690 mmHg 19%

19 Juin, Samedi

Heure Température Précipitation Vent Pression Humidité
00:00 +26°C° 0 mm 2 m/s 690 mmHg 20%
01:00 +25°C° 0 mm 2 m/s 690 mmHg 20%
02:00 +25°C° 0 mm 2 m/s 690 mmHg 21%
03:00 +25°C° 0 mm 2 m/s 690 mmHg 21%
04:00 +24°C° 0 mm 2 m/s 690 mmHg 22%
05:00 +26°C° 0 mm 2 m/s 691 mmHg 19%
06:00 +29°C° 0 mm 2 m/s 691 mmHg 17%
07:00 +31°C° 0 mm 2 m/s 692 mmHg 15%
08:00 +33°C° 0 mm 3 m/s 692 mmHg 14%
09:00 +35°C° 0 mm 4 m/s 692 mmHg 13%
10:00 +36°C° 0 mm 5 m/s 692 mmHg 11%
11:00 +38°C° 0 mm 6 m/s 692 mmHg 11%
12:00 +38°C° 0 mm 6 m/s 691 mmHg 10%
13:00 +39°C° 0 mm 7 m/s 691 mmHg 10%
14:00 +38°C° 0 mm 7 m/s 691 mmHg 10%
15:00 +38°C° 0 mm 7 m/s 691 mmHg 11%
16:00 +38°C° 0 mm 7 m/s 691 mmHg 12%
17:00 +35°C° 0 mm 7 m/s 691 mmHg 15%
18:00 +33°C° 0 mm 8 m/s 691 mmHg 18%
19:00 +31°C° 0 mm 8 m/s 691 mmHg 21%
20:00 +28°C° 0 mm 7 m/s 691 mmHg 23%
21:00 +26°C° 0 mm 6 m/s 691 mmHg 25%
22:00 +23°C° 0 mm 5 m/s 692 mmHg 27%
23:00 +22°C° 0 mm 4 m/s 691 mmHg 27%

20 Juin, Dimanche

Heure Température Précipitation Vent Pression Humidité
00:00 +21°C° 0 mm 4 m/s 691 mmHg 27%
01:00 +20°C° 0 mm 3 m/s 690 mmHg 27%
02:00 +19°C° 0 mm 3 m/s 690 mmHg 27%
03:00 +19°C° 0 mm 3 m/s 690 mmHg 28%
04:00 +18°C° 0 mm 3 m/s 691 mmHg 28%
05:00 +19°C° 0 mm 3 m/s 691 mmHg 27%
06:00 +21°C° 0 mm 4 m/s 691 mmHg 25%
07:00 +22°C° 0 mm 4 m/s 692 mmHg 24%
08:00 +25°C° 0 mm 4 m/s 692 mmHg 22%
09:00 +26°C° 0 mm 5 m/s 692 mmHg 20%
10:00 +28°C° 0 mm 6 m/s 692 mmHg 18%
11:00 +29°C° 0 mm 6 m/s 692 mmHg 17%
12:00 +29°C° 0 mm 7 m/s 692 mmHg 16%
13:00 +30°C° 0 mm 7 m/s 692 mmHg 15%
14:00 +30°C° 0 mm 7 m/s 692 mmHg 14%
15:00 +30°C° 0 mm 7 m/s 692 mmHg 13%
16:00 +30°C° 0 mm 7 m/s 692 mmHg 12%
17:00 +28°C° 0 mm 7 m/s 692 mmHg 13%
18:00 +26°C° 0 mm 6 m/s 692 mmHg 14%
19:00 +25°C° 0 mm 5 m/s 692 mmHg 15%
20:00 +23°C° 0 mm 5 m/s 692 mmHg 17%
21:00 +22°C° 0 mm 5 m/s 692 mmHg 19%
22:00 +21°C° 0 mm 4 m/s 692 mmHg 21%
23:00 +20°C° 0 mm 4 m/s 692 mmHg 23%

21 Juin, Lundi

Heure Température Précipitation Vent Pression Humidité
00:00 +19°C° 0 mm 4 m/s 691 mmHg 24%
01:00 +19°C° 0 mm 3 m/s 691 mmHg 26%
02:00 +18°C° 0 mm 3 m/s 691 mmHg 27%
03:00 +18°C° 0 mm 3 m/s 691 mmHg 29%
04:00 +17°C° 0 mm 3 m/s 691 mmHg 30%
05:00 +19°C° 0 mm 3 m/s 691 mmHg 28%
06:00 +21°C° 0 mm 4 m/s 692 mmHg 26%
07:00 +22°C° 0 mm 4 m/s 692 mmHg 24%
08:00 +25°C° 0 mm 5 m/s 692 mmHg 23%
09:00 +27°C° 0 mm 5 m/s 693 mmHg 22%
10:00 +29°C° 0 mm 6 m/s 693 mmHg 21%
11:00 +29°C° 0 mm 6 m/s 693 mmHg 21%
12:00 +30°C° 0 mm 6 m/s 693 mmHg 21%
13:00 +32°C° 0 mm 7 m/s 693 mmHg 21%
14:00 +32°C° 0 mm 6 m/s 693 mmHg 22%
15:00 +30°C° 0 mm 6 m/s 693 mmHg 22%
16:00 +30°C° 0 mm 6 m/s 693 mmHg 23%
17:00 +29°C° 0 mm 5 m/s 693 mmHg 26%
18:00 +27°C° 0 mm 5 m/s 693 mmHg 29%
19:00 +25°C° 0 mm 4 m/s 692 mmHg 32%
20:00 +23°C° 0 mm 4 m/s 692 mmHg 34%
21:00 +22°C° 0 mm 3 m/s 692 mmHg 36%
22:00 +21°C° 0 mm 2 m/s 692 mmHg 38%
23:00 +21°C° 0 mm 2 m/s 692 mmHg 39%
Voir plus

Nous avons besoin de votre consentement

Meteoprog et ses fournisseurs de services peuvent stocker et accéder à des données personnelles telles que des cookies, des identifiants d'appareils ou d'autres technologies similaires sur votre appareil et traiter ces données pour personnaliser le contenu et les publicités, ainsi que pour fournir des fonctionnalités de médias sociaux et analyser le trafic.

  • Stocker et/ou accéder à des informations sur votre appareil

    Des cookies, des identifiants d'appareils ou d'autres informations peuvent être stockés ou accessibles sur votre appareil aux fins indiquées ci-dessus.

  • Annonces et contenus personnalisés, mesure des annonces et des contenus, connaissance de l'audience et développement de produits

    Les annonces et le contenu peuvent être personnalisés en fonction d'un profil. D'autres données peuvent être ajoutées pour mieux personnaliser les annonces et le contenu. Les performances des publicités et du contenu peuvent être mesurées. Il est possible d'obtenir des informations sur le public qui a vu les publicités et le contenu. Ces données peuvent être utilisées pour développer ou améliorer l'expérience de l'utilisateur, les systèmes et les logiciels.

En cliquant sur "J'accepte", vous autorisez l'utilisation de cookies, des identifiants d'appareils, des balises web ou d'autres technologies similaires. Vos paramètres peuvent être modifiés dans le navigateur de votre appareil.

Dans certains cas, des intérêts légitimes peuvent être invoqués plutôt qu'un consentement. Vous pouvez en savoir plus à ce sujet dans notre Politique de confidentialité et de cookies.